Waarnemingen

Advertentie
Mijn weer
Capo Frasca, Italië (16539): temperatuur & dauwpunt: 18.02.2018 13:00:00 - 24.02.2018 13:00:00 (CET)Capo Frasca, Italië (16539): windsnelheid: 18.02.2018 13:00:00 - 24.02.2018 13:00:00 (CET)Capo Frasca, Italië (16539): windrichting: 18.02.2018 13:00:00 - 24.02.2018 13:00:00 (CET)Capo Frasca, Italië (16539): luchtdruk: 18.02.2018 13:00:00 - 24.02.2018 13:00:00 (CET)Capo Frasca, Italië (16539): zicht: 18.02.2018 13:00:00 - 24.02.2018 13:00:00 (CET)
Datum & Tijd tt [°C] td [°C] ff [km/u] ff [kn] dd ppp [hPa] vv [km]
24.02.2018 13:00:00 11,4 10,8 9 5 WNW 1006,3 25
24.02.2018 12:00:00 - - - - - - -
24.02.2018 11:00:00 - - - - - - -
24.02.2018 10:00:00 9,0 9,0 34 18 WNW 1005,8 12
24.02.2018 09:00:00 - - - - - - -
24.02.2018 08:00:00 - - - - - - -
24.02.2018 07:00:00 9,2 9,0 24 13 NW 1003,9 20
24.02.2018 06:00:00 - - - - - - -
24.02.2018 05:00:00 - - - - - - -
24.02.2018 04:00:00 - - - - - - -
24.02.2018 03:00:00 - - - - - - -
24.02.2018 02:00:00 - - - - - - -
24.02.2018 01:00:00 - - - - - - -
24.02.2018 00:00:00 - - - - - - -
23.02.2018 23:00:00 - - - - - - -
23.02.2018 22:00:00 - - - - - - -
23.02.2018 21:00:00 - - - - - - -
23.02.2018 20:00:00 - - - - - - -
23.02.2018 19:00:00 8,8 8,8 26 14 NNW 1001,8 18
23.02.2018 18:00:00 - - - - - - -
23.02.2018 17:00:00 - - - - - - -
23.02.2018 16:00:00 10,8 8,6 22 12 NNW 1001,2 20
23.02.2018 15:00:00 - - - - - - -
23.02.2018 14:00:00 - - - - - - -
23.02.2018 13:00:00 11,4 9,0 15 8 NW 1001,3 25
23.02.2018 12:00:00 - - - - - - -
23.02.2018 11:00:00 - - - - - - -
23.02.2018 10:00:00 7,4 7,1 9 5 ZO 1001,3 20
23.02.2018 09:00:00 - - - - - - -
23.02.2018 08:00:00 - - - - - - -
23.02.2018 07:00:00 4,2 3,5 5 3 OZO 1001,1 20
23.02.2018 06:00:00 - - - - - - -
23.02.2018 05:00:00 - - - - - - -
23.02.2018 04:00:00 - - - - - - -
23.02.2018 03:00:00 - - - - - - -
23.02.2018 02:00:00 - - - - - - -
23.02.2018 01:00:00 - - - - - - -
23.02.2018 00:00:00 - - - - - - -
22.02.2018 23:00:00 - - - - - - -
22.02.2018 22:00:00 - - - - - - -
22.02.2018 21:00:00 - - - - - - -
22.02.2018 20:00:00 - - - - - - -
22.02.2018 19:00:00 7,8 6,7 4 2 ZW 1000,9 15
22.02.2018 18:00:00 - - - - - - -
22.02.2018 17:00:00 - - - - - - -
22.02.2018 16:00:00 8,8 7,3 21 11 NNO 1000,4 20
22.02.2018 15:00:00 - - - - - - -
22.02.2018 14:00:00 - - - - - - -
22.02.2018 13:00:00 8,0 6,1 8 4 NNO 1000,7 20
22.02.2018 12:00:00 - - - - - - -
22.02.2018 11:00:00 - - - - - - -
22.02.2018 10:00:00 5,0 4,4 8 4 NNO 1000,8 4,0
22.02.2018 09:00:00 - - - - - - -
22.02.2018 08:00:00 - - - - - - -
22.02.2018 07:00:00 5,4 5,0 18 10 ONO 1000,0 20
22.02.2018 06:00:00 - - - - - - -
22.02.2018 05:00:00 - - - - - - -
22.02.2018 04:00:00 - - - - - - -
22.02.2018 03:00:00 - - - - - - -
22.02.2018 02:00:00 - - - - - - -
22.02.2018 01:00:00 - - - - - - -
22.02.2018 00:00:00 - - - - - - -
21.02.2018 23:00:00 - - - - - - -
21.02.2018 22:00:00 - - - - - - -
21.02.2018 21:00:00 - - - - - - -
21.02.2018 20:00:00 - - - - - - -
21.02.2018 19:00:00 9,8 7,7 4 2 N 1001,5 20
21.02.2018 18:00:00 - - - - - - -
21.02.2018 17:00:00 - - - - - - -
21.02.2018 16:00:00 10,6 6,2 9 5 WZW 1001,8 20
21.02.2018 15:00:00 - - - - - - -
21.02.2018 14:00:00 - - - - - - -
21.02.2018 13:00:00 11,4 5,7 5 3 ONO 1002,8 25
21.02.2018 12:00:00 - - - - - - -
21.02.2018 11:00:00 - - - - - - -
21.02.2018 10:00:00 8,2 6,3 8 4 ZO 1003,2 25
21.02.2018 09:00:00 - - - - - - -
21.02.2018 08:00:00 - - - - - - -
21.02.2018 07:00:00 4,8 4,2 2 1 N 1003,0 20
21.02.2018 06:00:00 - - - - - - -
21.02.2018 05:00:00 - - - - - - -
21.02.2018 04:00:00 - - - - - - -
21.02.2018 03:00:00 - - - - - - -
21.02.2018 02:00:00 - - - - - - -
21.02.2018 01:00:00 - - - - - - -
21.02.2018 00:00:00 - - - - - - -
20.02.2018 23:00:00 - - - - - - -
20.02.2018 22:00:00 - - - - - - -
20.02.2018 21:00:00 - - - - - - -
20.02.2018 20:00:00 - - - - - - -
20.02.2018 19:00:00 7,6 7,6 8 4 ZO 1002,9 10
20.02.2018 18:00:00 - - - - - - -
20.02.2018 17:00:00 - - - - - - -
20.02.2018 16:00:00 8,8 8,5 16 9 NNW 1004,1 8
20.02.2018 15:00:00 - - - - - - -
20.02.2018 14:00:00 - - - - - - -
20.02.2018 13:00:00 8,8 8,2 11 6 WZW 1007,2 20
20.02.2018 12:00:00 - - - - - - -
20.02.2018 11:00:00 - - - - - - -
20.02.2018 10:00:00 9,0 8,5 5 3 ZZO 1009,4 25
20.02.2018 09:00:00 - - - - - - -
20.02.2018 08:00:00 - - - - - - -
20.02.2018 07:00:00 8,0 6,8 4 2 NO 1010,2 20
20.02.2018 06:00:00 - - - - - - -
20.02.2018 05:00:00 - - - - - - -
20.02.2018 04:00:00 - - - - - - -
20.02.2018 03:00:00 - - - - - - -
20.02.2018 02:00:00 - - - - - - -
20.02.2018 01:00:00 - - - - - - -
20.02.2018 00:00:00 - - - - - - -
19.02.2018 23:00:00 - - - - - - -
19.02.2018 22:00:00 - - - - - - -
19.02.2018 21:00:00 - - - - - - -
19.02.2018 20:00:00 - - - - - - -
19.02.2018 19:00:00 10,4 8,5 13 7 WNW 1013,3 20
19.02.2018 18:00:00 - - - - - - -
19.02.2018 17:00:00 - - - - - - -
19.02.2018 16:00:00 13,6 10,0 22 12 W 1013,5 25
19.02.2018 15:00:00 - - - - - - -
19.02.2018 14:00:00 - - - - - - -
19.02.2018 13:00:00 10,8 10,8 15 8 NNW 1014,9 18
19.02.2018 12:00:00 - - - - - - -
19.02.2018 11:00:00 - - - - - - -
19.02.2018 10:00:00 11,6 11,4 8 4 NNW 1014,7 12
19.02.2018 09:00:00 - - - - - - -
19.02.2018 08:00:00 - - - - - - -
19.02.2018 07:00:00 10,0 9,9 2 1 N 1014,4 20
19.02.2018 06:00:00 - - - - - - -
19.02.2018 05:00:00 - - - - - - -
19.02.2018 04:00:00 - - - - - - -
19.02.2018 03:00:00 - - - - - - -
19.02.2018 02:00:00 - - - - - - -
19.02.2018 01:00:00 - - - - - - -
19.02.2018 00:00:00 - - - - - - -
18.02.2018 23:00:00 - - - - - - -
18.02.2018 22:00:00 - - - - - - -
18.02.2018 21:00:00 - - - - - - -
18.02.2018 20:00:00 - - - - - - -
18.02.2018 19:00:00 10,8 8,9 24 13 NW 1016,5 20
18.02.2018 18:00:00 - - - - - - -
18.02.2018 17:00:00 - - - - - - -
18.02.2018 16:00:00 12,6 8,9 26 14 NW 1017,3 20
18.02.2018 15:00:00 - - - - - - -
18.02.2018 14:00:00 - - - - - - -
18.02.2018 13:00:00 13,8 11,0 28 15 NW 1018,2 20

tt = temperatuur
td = dauwpunt
ff = windsnelheid
dd = windrichting
ppp = luchtdruk
vv = zicht

Weerstations in de omgeving